Погода в Бурдуково

Россия / Костромская область     59°03′59″N   42°34′44″E
темп.,
°C
ветер,
м/с
пор.,
м/с
влажн.,
%
обл.,
%
осадки,
мм/ч
давл.,
гПа
погр.,
м
22 апреля, чт
чт2200:00+3ююз3698100 0.5 1010628
03:00+2ююз3893100 0.6 1011491
06:00+3ююз3992100 0.0 1012499
09:00+5ююз5882100 0.0 1013778
12:00+6ю588664 0.1 1014754
15:00+7ю5976100 0.2 1015863
18:00+6ю41086100 0.6 10151174
21:00+5ю3119393 0.9 1016433
23 апреля, пт
пт2300:00+4ю3109416 0.0 1017300
03:00+3ююв310945 0.0 1017229
06:00+5юв3128880 0.0 1017314
09:00+10ююв5107547 0.0 1017652
12:00+14ю586148 0.0 10161390
15:00+15ю596294 1.6 10161388
18:00+13ююв4106685 0.3 1016816
21:00+9ююв414809 0.3 1016435
24 апреля, сб
сб2400:00+8юв413845 0.0 1016384
03:00+6юв413865 0.0 1014328
06:00+8юв41376100 0.0 1013412
09:00+12юв611665 0.0 10111054
12:00+14юв7126243 1.1 10091680
15:00+14юв6116067 2.5 10071784
18:00+12юв6126675 0.5 10051264
21:00+9вюв51277100 0.5 1004913
25 апреля, вс
вс2500:00+8вюв51285100 0.0 1002757
03:00+7вюв4989100 0.2 10001108
06:00+3зюз3596100 1.3 1000322
09:00+1з41096100 5.3 1000465
12:00+2з51396100 2.0 1001762
15:00+3з61393100 3.9 10031147
18:00+3зюз51092100 0.9 1004907
21:00+2зюз51189100 0.9 1005715
26 апреля, пн
пн2600:00+2юз51287100 0.0 1005669
03:00+1юз51290100 0.0 1005634
06:00+1юз51290100 0.0 1005645
09:00+4юз51081100 0.0 1006994
12:00+6юз6963100 0.1 10061702
15:00+7юз5858100 0.3 10051727
18:00+5зюз3870100 0.4 1005856
21:00+2зюз31087100 0.4 1006384